Regional Weather Roundup
Issued by NWS

Home | Current Version | Previous Version | Text Only | Print | Product List | Glossary Off
Versions: 1 2 3 4 5 6 7 8 9 10 11 12 13 14 15 16 17 18 19 20 21 22 23 24 25 26 27 28 29 30 31 32 33 34 35 36 37 38 39 40 41 42 43 44 45 46 47 48 49 50

000
ASUS45 KSLC 220210
RWRUT

UTAH REGIONAL WEATHER ROUNDUP
NATIONAL WEATHER SERVICE SALT LAKE CITY UT
800 PM MDT THU AUG 21 2014

UTZ001>011-023>025-220300-

NORTHERN UTAH

CITY           SKY/WX    TMP DP  RH WIND       PRES   REMARKS
HILL AFB       CLOUDY    73  46  38 SE6       30.05S
LOGAN          PTCLDY    70  56  61 N8        30.05R
OGDEN          MOCLDY    76  46  34 SE6       30.02F
PROVO AIRPORT  PTCLDY    73  52  46 NW7       30.04S
SALT LAKE CITY MOCLDY    75  46  35 S6        30.00S
VERNAL         MOCLDY    69  48  47 N10       30.11S
WENDOVER       MOCLDY    81  39  22 N18       29.98R
HEBER CITY     PTCLDY    68  50  52 CALM      30.11R
WEST JORDAN    CLEAR     73  54  49 CALM      30.04F

$$

UTZ012>022-026-027-220300-

SOUTHERN UTAH

CITY           SKY/WX    TMP DP  RH WIND       PRES   REMARKS
BRYCE CANYON   MOCLDY    55  47  74 SW5       30.30R
CEDAR CITY     CLOUDY    63  51  65 W10       30.18R
MILFORD        PTCLDY    78  42  27 SW21      30.08R
MOAB/CYNLANDS  CLEAR     79  45  29 E3        30.03S
PRICE          MOCLDY    74  41  30 SE13      30.12F
ST GEORGE      PTCLDY    81  50  34 W9        30.03R
KANAB            N/A     63  54  72 SW12      30.21R

$$

REGIONAL REPORTS     COLORADO/ARIZONA

CITY           SKY/WX    TMP DP  RH WIND       PRES   REMARKS
CRAIG, CO      PTCLDY    64  46  52 N15       30.21R
GRAND JUNCTION CLOUDY    75  47  36 CALM      30.08S
RIFLE          CLOUDY    73  40  30 E5        30.13S
MONTROSE       CLOUDY    74  45  35 SE3       30.17S
CORTEZ         PTCLDY    74  35  24 CALM      30.16S
PAGE, AZ       CLOUDY    81  43  26 SW5       30.05S
GRAND CANYON   LGT RAIN  55  52  89 S6        30.31
KINGMAN        PTCLDY    70  59  68 N8        30.06S
FLAGSTAFF      CLOUDY    55  53  93 E3        30.28F

$$

REGIONAL REPORTS    NEVADA/IDAHO/WYOMING

CITY           SKY/WX    TMP DP  RH WIND       PRES   REMARKS
LAS VEGAS, NV  MOCLDY    82  48  30 S13       29.92F
ELY            PTCLDY    71  37  28 S9        30.10S
ELKO           PTCLDY    81  29  15 W12       29.98R
POCATELLO, ID  MOCLDY    68  48  48 SW16G25   30.03R
BURLEY         LGT RAIN  62  53  72 S9G22     30.01F
EVANSTON, WY   PTCLDY    63  42  46 W8        30.21S
ROCK SPRINGS   MOCLDY    58  48  69 SE12      30.22S

$$



USA.gov is the U.S. government's official web portal to all federal, state and local government web resources and services.